Regional Weather Roundup
Issued by NWS

Home | Current Version | Previous Version | Text Only | Print | Product List | Glossary Off
Versions: 1 2 3 4 5 6 7 8 9 10 11 12 13 14 15 16 17 18 19 20 21 22 23 24 25 26 27 28 29 30 31 32 33 34 35 36 37 38 39 40 41 42 43 44 45 46 47 48 49 50

000
ASUS43 KLSX 101110
RWRMO

WEATHER SUMMARY FOR MISSOURI
NATIONAL WEATHER SERVICE SPRINGFIELD MO
500 AM CST SAT DEC 10 2016

NOTE: "FAIR" INDICATES FEW OR NO CLOUDS BELOW 12,000 FEET WITH NO
       SIGNIFICANT WEATHER AND/OR OBSTRUCTIONS TO VISIBILITY.
       CURRENT SKY AND/OR WEATHER CONDITIONS ARE NOT AVAILABLE FOR
       CHILLICOTHE AND FARMINGTON.

MOZ001>031-035>038-043-044-053-054-101200-
...NORTHERN AND WESTERN MISSOURI...

CITY           SKY/WX    TMP DP  RH WIND       PRES   REMARKS
KANSAS CTY INT CLOUDY    25  13  60 SE7       30.45F WCI  17
KANSAS C DTWN  CLOUDY    28  14  55 E5        30.48S WCI  23
LEE`S SUMMIT   CLOUDY    25  15  66 SE5       30.46F WCI  19
ST JOSEPH      CLOUDY    25  14  63 SE3       30.48S
CHILLICOTHE      N/A     25  12  58 SE6       30.51F WCI  18
KIRKSVILLE     CLOUDY    24  16  71 S5        30.51F WCI  18

$$
MOZ066>068-077>081-088>096-101>105-101200-
...SOUTHWEST MISSOURI...

CITY           SKY/WX    TMP DP  RH WIND       PRES   REMARKS
SPRINGFIELD    CLOUDY    28  16  60 S8        30.47S WCI  20
JOPLIN         CLOUDY    33  18  53 S7        30.47F WCI  27
BRANSON        CLOUDY    28  18  64 SE3       30.49F

$$
MOZ032>034-039>042-045>050-055>058-069>072-101200-
...CENTRAL MISSOURI...

CITY           SKY/WX    TMP DP  RH WIND       PRES   REMARKS
COLUMBIA       CLOUDY    25  13  60 SE7       30.51F WCI  17
JEFFERSON CITY CLOUDY    26  13  57 SE3       30.54F
ROLLA          CLOUDY    23  14  68 E7        30.49F WCI  15
SEDALIA        CLOUDY    27  13  55 SE7       30.50F WCI  19
WHITEMAN AFB   CLOUDY    26  15  62 E3        30.47F
WARRENSBURG    CLOUDY    27  18  69 E3        30.49F
OSAGE BEACH    CLOUDY    26  15  63 SE3       30.52S

$$
MOZ051-052-059>065-101200-
...EAST CENTRAL MISSOURI...

CITY           SKY/WX    TMP DP  RH WIND       PRES   REMARKS
ST LOUIS INTL  CLOUDY    27  13  55 CALM      30.57S
SPIRIT OF STL  CLOUDY    25  16  68 CALM      30.57S
ST CHARLES     CLOUDY    26  18  71 CALM      30.58R

$$
MOZ072>076-082>087-097>100-106>115-101200-
...SOUTH CENTRAL AND SOUTHEAST MISSOURI...

CITY           SKY/WX    TMP DP  RH WIND       PRES   REMARKS
CAPE GIRARDEAU CLEAR     16  13  88 SE5       30.60R WCI   9
FARMINGTON     CLOUDY    15  12  88 S3        30.54F
POPLAR BLUFF   CLOUDY    19  16  88 NW3       30.60R
WEST PLAINS    CLOUDY    17  12  80 CALM      30.52S

$$




USA.gov is the U.S. government's official web portal to all federal, state and local government web resources and services.